Home > Weather > Gran > Past weeks

Flag for Norway Past Weather in Gran, Norway — Yesterday and Last 2 Weeks

Now
46 °F

Overcast.


Feels Like: 39 °F
Forecast: 39 / 54 °F
Wind: 17 mph from North

Location: Oslo Gardermoen Airport

Current Time: May 24, 2016 at 8:14:24 AM

Latest Report: May 24, 2016 at 7:20 AM


Visibility: N/A

Pressure: 30.01 "Hg

Humidity: 82%

Dew Point: 41 °F

Location of GranLocation

Past Weather in Gran — Graph

°F

Gran Temperature Yesterday

Maximum temperature yesterday: 57 °F (at 12:20 AM)
Minimum temperature yesterday: 50 °F (at 11:50 PM)
Average temperature yesterday: 56 °F

High & Low Weather Summary for the Past Weeks

 TemperatureHumidityPressure
High75 °F (May 9, 4:50 PM)100% (May 22, 4:50 AM)30.33 "Hg (May 22, 4:50 AM)
Low34 °F (May 17, 3:20 AM)20% (May 9, 6:50 PM)29.62 "Hg (May 17, 3:50 PM)
Average53 °F58%29.83 "Hg
* Reported May 9 6:20 AM — May 24 6:50 AM, Gran, Weather by CustomWeather, © 2016

Note: Actual official high and low records may vary slightly from our data, if they occured in-between our weather recording intervals... More about our weather records

Advertising

Gran Weather History for the Previous 24 Hours

Scroll right to see more
 ConditionsComfort  
Time TempWeatherWind HumidityBarometerVisibility
6:50 AM
Tue, May 24
48 °FOvercast.16 mph76%30.01 "HgN/A
6:20 AM48 °FOvercast.14 mph76%30.01 "HgN/A
4:20 AM48 °FOvercast.12 mph82%29.98 "HgN/A
3:20 AM50 °FPassing clouds.12 mph82%29.98 "HgN/A
2:50 AM50 °FOvercast.13 mph82%29.98 "HgN/A
2:20 AM50 °FOvercast.13 mph88%29.95 "HgN/A
1:50 AM50 °FPassing clouds.15 mph88%29.95 "HgN/A
1:20 AM50 °FOvercast.13 mph88%29.95 "HgN/A
12:50 AM50 °FPassing clouds.14 mph88%29.95 "HgN/A
12:20 AM50 °FScattered showers. Passing clouds.12 mph94%29.95 "HgN/A
11:50 PM
Mon, May 23
50 °FLight rain. Partly cloudy.10 mph94%29.95 "HgN/A
11:20 PM52 °FLight rain. Mostly cloudy.12 mph88%29.92 "Hg5 mi
10:50 PM52 °FSprinkles. Broken clouds.10 mph88%29.92 "Hg6 mi
10:20 PM52 °FRain. Partly sunny.13 mph94%29.92 "HgN/A
9:50 PM52 °FLight rain. Partly sunny.10 mph94%29.89 "Hg4 mi
9:20 PM54 °FLight rain. Partly sunny.9 mph94%29.89 "Hg3 mi
8:50 PM54 °FLight rain. Partly sunny.8 mph94%29.89 "Hg6 mi
8:20 PM54 °FLight rain. Partly sunny.7 mph94%29.89 "Hg6 mi
7:50 PM54 °FLight rain. Partly sunny.5 mph94%29.86 "HgN/A
7:20 PM54 °FLight rain. Partly sunny.9 mph94%29.86 "HgN/A
6:50 PM54 °FLight rain. More clouds than sun.6 mph94%29.86 "Hg6 mi
6:20 PM55 °FRain. More clouds than sun.6 mph94%29.86 "Hg4 mi
5:50 PM55 °FRain. More clouds than sun.6 mph94%29.83 "Hg4 mi
5:20 PM57 °FLight rain. Broken clouds.2 mph94%29.83 "Hg4 mi
4:50 PM57 °FLight rain. Broken clouds.2 mph94%29.83 "Hg4 mi
4:20 PM57 °FLight rain. Partly sunny.5 mph94%29.83 "Hg4 mi
3:50 PM57 °FLight rain. Broken clouds.2 mph94%29.83 "Hg4 mi
3:20 PM57 °FLight rain. Partly sunny.6 mph94%29.83 "Hg4 mi
2:50 PM57 °FLight rain. Fog.7 mph94%29.83 "Hg2 mi
2:20 PM57 °FLight rain. Fog.7 mph94%29.83 "Hg2 mi
1:50 PM57 °FLight rain. Broken clouds.6 mph94%29.80 "Hg5 mi
1:20 PM57 °FLight rain. Partly sunny.6 mph94%29.80 "Hg4 mi
12:50 PM55 °FLight rain. Partly sunny.7 mph94%29.80 "Hg2 mi
12:20 PM55 °FLight rain. Fog.6 mph94%29.80 "Hg2 mi
11:50 AM55 °FRain. More clouds than sun.6 mph94%29.80 "Hg3 mi
11:20 AM55 °FRain. Fog.6 mph94%29.80 "Hg3 mi
10:50 AM55 °FRain. Fog.6 mph94%29.77 "Hg3 mi
10:20 AM55 °FRain. Fog.6 mph94%29.77 "Hg2 mi
9:50 AM55 °FRain. Fog.6 mph94%29.77 "Hg2 mi
9:20 AM57 °FRain. More clouds than sun.5 mph88%29.77 "Hg3 mi
8:50 AM57 °FLight rain. More clouds than sun.6 mph88%29.77 "HgN/A
8:20 AM57 °FLight rain. Partly sunny.6 mph88%29.74 "Hg4 mi
Weather by CustomWeather, © 2016

See weather overviewHow to use our weather pages